Regional Weather Roundup
Issued by NWS Cleveland, OH

Home | Current Version | Previous Version | Graphics & Text | Print | Product List | Glossary On
Versions: 1 2 3 4 5 6 7 8 9 10 11 12 13 14 15 16 17 18 19 20 21 22 23 24 25 26 27 28 29 30 31 32 33 34 35 36 37 38 39 40 41 42 43 44 45 46 47 48 49 50
395
ASUS41 KCLE 240812
RWRCLE
OHIO REGIONAL WEATHER ROUNDUP
NATIONAL WEATHER SERVICE WILMINGTON, OH
400 AM EDT SAT JUN 24 2017

NOTE: "FAIR" INDICATES FEW OR NO CLOUDS BELOW 12,000 FEET WITH NO
SIGNIFICANT WEATHER AND/OR OBSTRUCTIONS TO VISIBILITY.

OHZ001>008-015>018-024>027-034-035-043-044-240900-
   NORTHWEST OHIO

CITY           SKY/WX    TMP DP  RH WIND       PRES   REMARKS
DEFIANCE       FAIR      58  53  84 CALM      29.81R
FINDLAY        FAIR      61  53  75 SW7       29.80R
TOLEDO EXPRESS FAIR      59  55  87 W8        29.78S
TOLEDO EXEC    FAIR      62  56  80 SW6       29.78S
LIMA           NOT AVBL
$$

OHZ009>014-019>023-028>033-038-089-240900-
   NORTHEAST OHIO

CITY           SKY/WX    TMP DP  RH WIND       PRES   REMARKS
CLE-HOPKINS    FAIR      65  61  87 W8        29.77R
CLE-LAKEFRONT  FAIR      69  64  84 W14       29.73S
CUY CO. ARPT   NOT AVBL
LORAIN-ELYRIA  FAIR      64  55  72 W10       29.78R
ASHTABULA      FAIR      65  64  97 W7        29.74R
AKRON-CANTON   FAIR      65  61  87 W7        29.77R
WOOSTER        FAIR      63  60  90 W6        29.79R
MANSFIELD      FAIR      62  58  86 W8        29.81R
YOUNGSTOWN     FAIR      66  64  93 W7        29.74R
$$

OHZ042-051>053-060>062-070>072-077>081-240900-
  SOUTHWEST OHIO

CITY           SKY/WX    TMP DP  RH WIND       PRES   REMARKS
CINC-COVINGTON FOG       61  61 100 S3        29.89R VSB 1/4
CINC-LUNKEN    FOG       61  61 100 CALM      29.88R VSB 1/4
HAMILTON       FOG       61  61 100 CALM      29.88S VSB 1/4
DAYTON         FAIR      60  58  92 W8        29.86S
WRIGHT-PAT AFB CLEAR     61  61 100 S3        29.85S
DAYTON GENERAL FOG       60  60 100 S5        29.86S VSB 1/4
WILMINGTON     FAIR      63  63 100 SW7       29.87R FOG
$$

OHZ036-037-039>041-045>050-054>059-063>069-073>076-082>088-240900-
  CENTRAL AND SOUTHEAST OHIO

CITY           SKY/WX    TMP DP  RH WIND       PRES   REMARKS
COLUMBUS       FAIR      65  64  97 SW5       29.83R
OSU AIRPORT    FAIR      62  62 100 W7        29.83R
BOLTON FIELD   NOT AVBL
RICKENBACK AFB FAIR      62  62 100 W7        29.84R
NEWARK         FAIR      63  61  93 W5        29.82R
MARION         FAIR      62  56  80 W7        29.83R
LANCASTER      FAIR      63  63 100 SW7       29.84R
ZANESVILLE     FAIR      66  63  90 W7        29.81R
NEW PHILLY     FAIR      67  65  93 W3        29.79R
$$




USA.gov is the U.S. government's official web portal to all federal, state and local government web resources and services.